Regional Weather Roundup
Issued by NWS

Home | Current Version | Previous Version | Text Only | Print | Product List | Glossary On
Versions: 1 2 3 4 5 6 7 8 9 10 11 12 13 14 15 16 17 18 19 20 21 22 23 24 25 26 27 28 29 30 31 32 33 34 35 36 37 38 39 40 41 42 43 44 45 46 47 48 49 50
000
ASUS43 KMPX 220401
RWRMN
WEATHER ROUNDUP FOR MINNESOTA
NATIONAL WEATHER SERVICE TWIN CITIES/CHANHASSEN MN
1100 PM CDT THU MAY 21 2015


NOTE: "FAIR" INDICATES FEW OR NO CLOUDS BELOW 12,000 FEET WITH NO
SIGNIFICANT WEATHER AND/OR OBSTRUCTIONS TO VISIBILITY. N/A MEANS
CURRENT SKY AND/OR WEATHER CONDITIONS ARE NOT AVAILABLE.

MNZ060>063-068>070-220500-
   Twin Cities Metro

CITY           SKY/WX    TMP DP  RH WIND       PRES   REMARKS
TWIN CITIES    CLEAR     59  36  42 NW6       30.08R
ST PAUL        CLEAR     54  42  64 CALM      30.09R
CRYSTAL        CLEAR     55  35  47 CALM      30.08R
BLAINE         CLEAR     55  36  47 CALM      30.08S
LAKEVILLE      CLEAR     52  36  54 NW3       30.08S
EDEN PRAIRIE   CLEAR     58  36  43 NW5       30.08R
SOUTH ST PAUL  CLEAR     56  39  53 CALM      30.08R
LAKE ELMO      FAIR      48  37  66 CALM      30.09R
$$
MNZ001>005-007-008-013>017-022>024-027-028-220500-
   Northwest Minnesota

CITY           SKY/WX    TMP DP  RH WIND       PRES   REMARKS
BEMIDJI        CLEAR     44  34  69 CALM      30.12R
HALLOCK        CLEAR     50  39  66 E3        30.12S
ROSEAU         PTCLDY    52  34  50 W5        30.12S
WARROAD        PTCLDY    52  39  62 NW3       30.12S
THIEF RVR FALL CLEAR     52  34  50 N3        30.13S
CROOKSTON      CLEAR     54  37  54 N5        30.14R
FOSSTON        CLEAR     46  36  66 CALM      30.13S
DETROIT LAKES  CLEAR     55  36  47 NW5       30.14R
MOORHEAD       CLEAR     54  43  66 NW3       30.14R
PARK RAPIDS    CLEAR     53  34  48 CALM      30.11R
MAHNOMEN       FAIR      52  37  57 NW6       30.12R
$$
MNZ006-009>011-018-025>026-220500-
   North Central Minnesota

CITY           SKY/WX    TMP DP  RH WIND       PRES   REMARKS
BAUDETTE       CLEAR     45  40  82 CALM      30.10S
FLAG ISLAND    PTCLDY    54  43  66 CALM      30.10R
INTL FALLS     CLEAR     39  35  86 CALM      30.09R
WASKISH        CLEAR     45  39  81 CALM      30.11R
BIG FORK       CLEAR     43  34  70 CALM      30.11R
LONGVILLE      CLEAR     45  39  81 CALM      30.11R
GRAND RAPIDS   CLEAR     45  30  57 CALM      30.11R
CRANE LAKE     CLEAR     37  32  81 CALM      30.11R
ORR            CLEAR     43  30  61 CALM      30.07S
COOK           CLEAR     43  30  61 CALM      30.10R
WALKER         FAIR      46  35  66 CALM      30.11R
$$
MNZ012-019>021-037-220500-
   Northeast Minnesota

CITY           SKY/WX    TMP DP  RH WIND       PRES   REMARKS
DULUTH         CLEAR     52  32  46 N5        30.08R
ELY            CLEAR     41  32  70 CALM      30.09R
HIBBING        CLEAR     39  29  67 CALM      30.09R
EVELETH        CLEAR     45  30  57 CALM      30.10S
DULUTH HARBOR  CLEAR     54  37  54 NE5       30.08R
TWO HARBORS    CLEAR     55  32  41 N3        30.06R
SILVER BAY     CLEAR     45  32  61 CALM      30.07R
GRAND MARAIS     N/A     40  35  83 NE6       30.07R
G MARAIS ARPRT CLEAR     37  25  60 N6        30.08R
$$
MNZ029>031-032-039>041-046>048-054>057-064-220500-
   West Central Minnesota

CITY           SKY/WX    TMP DP  RH WIND       PRES   REMARKS
FERGUS FALLS   CLEAR     54  36  50 N6        30.13S
WHEATON        CLEAR     52  36  54 CALM      30.15R
MORRIS         CLEAR     55  37  50 NW8       30.12R
ALEXANDRIA     CLEAR     52  39  61 NW5       30.13R
ELBOW LAKE     FAIR      55  38  52 NW5       30.12S
WADENA         CLEAR     50  37  62 CALM      30.12R
GLENWOOD       CLEAR     54  37  54 NW6       30.12S
APPLETON       CLEAR     54  39  58 CALM      30.12S
BENSON         CLEAR     52  39  62 N5        30.12S
ORTONVILLE     CLEAR     55  36  47 N5        30.13R
MADISON        CLEAR     57  36  44 CALM      30.13R
WILLMAR        FAIR      55  39  54 NW3       30.13R
$$
MNZ033>034-036-042>043-049>051-058-059-220500-
   Central Minnesota

CITY           SKY/WX    TMP DP  RH WIND       PRES   REMARKS
ST CLOUD       CLEAR     47  40  76 CALM      30.09R
SAUK CENTRE    FAIR      54  36  51 CALM      30.11S
PAYNESVILLE    CLEAR     48  36  63 SW5       30.11S
AITKIN         CLEAR     45  37  76 CALM      30.09R
PINE RIVER     CLEAR     46  37  71 CALM      30.14R
BRAINERD       CLEAR     47  36  65 CALM      30.11R
STAPLES        CLEAR     48  36  61 CALM      30.12R
LONG PRAIRIE   FAIR      54  36  50 CALM      30.12R
LITTLE FALLS   CLEAR     46  37  71 CALM      30.11R
LITCHFIELD     CLEAR     57  37  47 NW3       30.11R
BUFFALO        CLEAR     53  42  66 CALM      30.11R
MAPLE LAKE     CLEAR     51  44  76 CALM      30.10S
$$
MNZ037-044-045-052-053-220500-
   East Central Minnesota

CITY           SKY/WX    TMP DP  RH WIND       PRES   REMARKS
PRINCETON      CLEAR     48  39  71 CALM      30.10R
MORA           CLEAR     50  36  57 CALM      30.11R
CAMBRIDGE      CLEAR     57  39  51 N3        30.07S
RUSH CITY      CLEAR     54  37  52 NW5       30.08S
MOOSE LAKE     CLEAR     52  32  46 N5        30.07R
HINCKLEY       FAIR      54  36  50 NW7       30.08S
CLOQUET        CLEAR     48  28  46 NW5       30.09R
MCGREGOR       CLEAR     52  32  46 NW3       30.10R
$$
MNZ071>073-080-081-089-090-097-098-220500-
   Southwest Minnesota

CITY           SKY/WX    TMP DP  RH WIND       PRES   REMARKS
MONTEVIDEO     CLEAR     57  36  44 N7        30.13R
GRANITE FALLS  CLEAR     57  34  41 NW7       30.13S
CANBY          CLEAR     52  35  52 SW6       30.15R
MARSHALL       CLEAR     55  30  38 W6        30.13R
REDWOOD FALLS  CLEAR     59  32  36 NW6       30.11R
OLIVIA         CLEAR     52  32  46 CALM      30.11S
PIPESTONE      FAIR      57  36  44 CALM      30.14R
WINDOM         CLEAR     54  30  40 CALM      30.13R
WORTHINGTON    CLEAR     54  28  37 CALM      30.14S
JACKSON        CLEAR     54  28  37 NW3       30.14R
TRACY          CLEAR     56  32  39 NW3       30.14R
SLAYTON        CLEAR     54  33  45 CALM      30.15R
$$
MNZ065>067-074>077-082>085-091>093-220500-
   South Central Minnesota

CITY           SKY/WX    TMP DP  RH WIND       PRES   REMARKS
MANKATO        CLEAR     59  32  36 NW5       30.10R
NEW ULM        CLEAR     54  34  47 W6        30.10R
ST JAMES       CLEAR     55  32  41 NW6       30.12R
FAIRMONT       CLEAR     55  30  38 NW6       30.11R
GLENCOE        CLEAR     59  38  46 W7        30.09R
FARIBAULT      CLEAR     50  39  66 CALM      30.09R
OWATONNA       CLEAR     52  36  54 CALM      30.09R
WASECA         CLEAR     54  34  47 NW3       30.10R
ALBERT LEA     CLEAR     55  39  54 CALM      30.09S
$$
MNZ078>079-086>088-094>096-220500-
   Southeast Minnesota

CITY           SKY/WX    TMP DP  RH WIND       PRES   REMARKS
ROCHESTER      CLEAR     56  31  38 NW8       30.09R
RED WING       CLEAR     54  36  50 CALM      30.06R
STANTON        CLEAR     53  35  49 CALM      30.07R
DODGE CENTER   CLEAR     57  32  38 N3        30.09R
WINONA         CLEAR     55  41  58 CALM      30.06R
AUSTIN         CLEAR     54  39  58 NW3       30.09R
PRESTON        CLEAR     54  35  49 N5        30.08R
$$
ABBREVIATIONS USED IN REMARKS
   TC - TEMPERATURES IN CELSIUS
  WCI - WIND CHILL INDEX
   HX - HEAT INDEX
  VSB - VISIBILITY
$$


USA.gov is the U.S. government's official web portal to all federal, state and local government web resources and services.